AAL961 KCLT-KOMA

Flight info

Callsign AAL961
Flight time 2h 12m
Altitude 36000
Route JOJJO5 DOOGE TONIO EASEL ARLYN KAMBL DSM LANTK2
Aircraft B738/M-SDE2E3FGHIRWXY/LB1

Departure

Time 2026-05-04 06:57
Airport Charlotte Douglas International Airport (KCLT)

Arrival

Time 2026-05-04 09:10
Airport Eppley Airfield (KOMA)
Time Latitude Longitude Altitude Speed Heading
2026-05-04 06:40 35.22163 -80.94683 756 ft 0 kts 175°
2026-05-04 06:50 35.22227 -80.94656 756 ft 0 kts 266°
2026-05-04 06:53 35.22226 -80.94663 756 ft 2 kts 266°
2026-05-04 06:53 35.22224 -80.94709 756 ft 6 kts 266°
2026-05-04 06:53 35.22222 -80.94749 756 ft 8 kts 266°
2026-05-04 06:53 35.22218 -80.94828 756 ft 10 kts 266°
2026-05-04 06:54 35.22213 -80.94926 756 ft 13 kts 266°
2026-05-04 06:54 35.22211 -80.95040 756 ft 14 kts 287°
2026-05-04 06:54 35.22293 -80.95075 756 ft 14 kts 352°
2026-05-04 06:54 35.22399 -80.95092 756 ft 17 kts 352°
2026-05-04 06:55 35.22519 -80.95108 756 ft 18 kts 355°
2026-05-04 06:55 35.22643 -80.95116 756 ft 18 kts
2026-05-04 06:55 35.22708 -80.95201 756 ft 16 kts 273°
2026-05-04 06:55 35.22685 -80.95306 756 ft 6 kts 184°
2026-05-04 06:56 35.22682 -80.95306 756 ft 0 kts 184°
2026-05-04 06:57 35.19391 -80.95095 1499 ft 194 kts 180°
2026-05-04 06:58 35.18054 -80.95322 2346 ft 188 kts 205°
2026-05-04 06:58 35.17089 -80.96327 3141 ft 189 kts 237°
2026-05-04 06:58 35.16713 -80.97950 3458 ft 215 kts 269°
2026-05-04 06:58 35.17149 -80.99774 3926 ft 231 kts 299°
2026-05-04 06:59 35.18294 -81.01093 4818 ft 230 kts 328°
2026-05-04 06:59 35.19819 -81.01774 5510 ft 241 kts 343°
2026-05-04 06:59 35.21478 -81.02279 6162 ft 251 kts 342°
2026-05-04 06:59 35.23146 -81.02958 6954 ft 254 kts 336°
2026-05-04 07:01 35.33032 -81.13030 11626 ft 301 kts 314°
2026-05-04 07:01 35.34520 -81.14945 11948 ft 318 kts 313°
2026-05-04 07:02 35.36086 -81.16964 12194 ft 337 kts 313°
2026-05-04 07:02 35.37734 -81.19088 12503 ft 351 kts 313°
2026-05-04 07:02 35.39430 -81.21272 13055 ft 357 kts 313°
2026-05-04 07:02 35.41151 -81.23489 13675 ft 361 kts 313°
2026-05-04 07:03 35.42894 -81.25730 14283 ft 366 kts 313°
2026-05-04 07:03 35.44616 -81.28082 14936 ft 367 kts 308°
2026-05-04 07:03 35.46129 -81.30575 15603 ft 369 kts 304°
2026-05-04 07:03 35.47592 -81.33178 16228 ft 371 kts 304°
2026-05-04 07:04 35.49060 -81.35757 16895 ft 371 kts 305°
2026-05-04 07:04 35.50548 -81.38358 17480 ft 374 kts 305°
2026-05-04 07:04 35.52045 -81.40972 18091 ft 375 kts 305°
2026-05-04 07:04 35.53563 -81.43603 18646 ft 377 kts 306°
2026-05-04 07:05 35.55251 -81.46029 19132 ft 382 kts 311°
2026-05-04 07:05 35.57185 -81.48259 19672 ft 385 kts 316°
2026-05-04 07:05 35.59258 -81.50351 20192 ft 388 kts 320°
2026-05-04 07:05 35.61424 -81.52305 20697 ft 391 kts 321°
2026-05-04 07:06 35.65891 -81.56218 21651 ft 395 kts 322°
2026-05-04 07:06 35.68143 -81.58180 21999 ft 400 kts 321°
2026-05-04 07:06 35.70427 -81.60174 22317 ft 405 kts 320°
2026-05-04 07:07 35.72727 -81.62190 22752 ft 407 kts 320°
2026-05-04 07:08 35.89124 -81.76616 25431 ft 421 kts 319°
2026-05-04 07:09 35.91510 -81.78721 25771 ft 423 kts 319°
2026-05-04 07:09 35.93907 -81.80823 26124 ft 424 kts 320°
2026-05-04 07:09 35.96311 -81.82932 26445 ft 425 kts 320°
2026-05-04 07:09 35.98736 -81.85064 26749 ft 427 kts 320°
2026-05-04 07:10 36.01135 -81.87176 27055 ft 428 kts 320°
2026-05-04 07:10 36.03545 -81.89301 27408 ft 428 kts 320°
2026-05-04 07:12 36.20180 -82.04032 30393 ft 413 kts 320°
2026-05-04 07:12 36.22532 -82.06117 30531 ft 418 kts 319°
2026-05-04 07:12 36.24905 -82.08229 30714 ft 421 kts 319°
2026-05-04 07:12 36.27267 -82.10332 31067 ft 420 kts 319°
2026-05-04 07:13 36.29639 -82.12446 31401 ft 419 kts 319°
2026-05-04 07:13 36.31999 -82.14550 31706 ft 419 kts 320°
2026-05-04 07:13 36.34372 -82.16668 31998 ft 419 kts 320°
2026-05-04 07:14 36.43784 -82.25082 33190 ft 417 kts 320°
2026-05-04 07:14 36.46142 -82.27194 33464 ft 417 kts 320°
2026-05-04 07:15 36.48514 -82.29320 33741 ft 417 kts 320°
2026-05-04 07:15 36.50863 -82.31427 34005 ft 417 kts 320°
2026-05-04 07:15 36.53205 -82.33530 34267 ft 416 kts 320°
2026-05-04 07:15 36.55556 -82.35637 34531 ft 416 kts 320°
2026-05-04 07:16 36.57808 -82.37651 34789 ft 416 kts 320°
2026-05-04 07:16 36.60158 -82.39759 35045 ft 415 kts 320°
2026-05-04 07:16 36.62498 -82.41865 35285 ft 415 kts 320°
2026-05-04 07:16 36.64840 -82.43977 35531 ft 415 kts 320°
2026-05-04 07:17 36.67166 -82.46078 35744 ft 415 kts 320°
2026-05-04 07:17 36.69512 -82.48199 35973 ft 415 kts 320°
2026-05-04 07:17 36.71847 -82.50312 36120 ft 417 kts 321°
2026-05-04 07:17 36.74191 -82.52435 36123 ft 418 kts 321°
2026-05-04 07:18 36.78868 -82.56672 36115 ft 414 kts 320°
2026-05-04 07:18 36.83446 -82.60946 36116 ft 410 kts 318°
2026-05-04 07:19 36.87909 -82.65421 36119 ft 412 kts 318°
2026-05-04 07:19 36.92366 -82.69889 36117 ft 411 kts 318°
2026-05-04 07:20 36.96847 -82.74374 36110 ft 411 kts 318°
2026-05-04 07:20 37.01323 -82.78841 36107 ft 412 kts 318°
2026-05-04 07:22 37.19213 -82.96761 36099 ft 413 kts 318°
2026-05-04 07:23 37.23578 -83.01165 36093 ft 415 kts 317°
2026-05-04 07:23 37.27625 -83.06263 36090 ft 413 kts 309°
2026-05-04 07:24 37.31399 -83.11780 36088 ft 414 kts 308°
2026-05-04 07:24 37.35083 -83.17198 36088 ft 413 kts 308°
2026-05-04 07:26 37.50053 -83.39291 36083 ft 414 kts 309°
2026-05-04 07:27 37.53792 -83.44793 36082 ft 414 kts 309°
2026-05-04 07:27 37.57535 -83.50323 36082 ft 415 kts 308°
2026-05-04 07:28 37.61254 -83.55832 36082 ft 415 kts 308°
2026-05-04 07:28 37.65002 -83.61398 36080 ft 414 kts 308°
2026-05-04 07:29 37.68715 -83.66923 36078 ft 414 kts 308°
2026-05-04 07:29 37.72432 -83.72469 36073 ft 413 kts 309°
2026-05-04 07:30 37.76133 -83.77998 36064 ft 414 kts 309°
2026-05-04 07:30 37.79883 -83.83609 36049 ft 413 kts 309°
2026-05-04 07:31 37.83583 -83.89159 36036 ft 414 kts 310°
2026-05-04 07:33 37.98424 -84.11502 36024 ft 415 kts 310°
2026-05-04 07:33 38.02103 -84.17065 36023 ft 414 kts 310°
2026-05-04 07:34 38.05816 -84.22690 36023 ft 414 kts 310°
2026-05-04 07:34 38.09513 -84.28299 36023 ft 414 kts 310°
2026-05-04 07:35 38.13202 -84.33908 36023 ft 414 kts 310°
2026-05-04 07:35 38.16886 -84.39518 36020 ft 414 kts 310°
2026-05-04 07:36 38.20569 -84.45137 36016 ft 414 kts 310°
2026-05-04 07:38 38.35247 -84.67623 36007 ft 413 kts 310°
2026-05-04 07:38 38.38911 -84.73262 36005 ft 414 kts 310°
2026-05-04 07:39 38.42570 -84.78903 36008 ft 414 kts 310°
2026-05-04 07:39 38.46228 -84.84552 36009 ft 414 kts 310°
2026-05-04 07:40 38.49884 -84.90206 35998 ft 413 kts 310°
2026-05-04 07:40 38.53539 -84.95870 35980 ft 412 kts 310°
2026-05-04 07:41 38.56559 -85.00558 35981 ft 412 kts 310°
2026-05-04 07:41 38.60809 -85.07167 35983 ft 413 kts 310°
2026-05-04 07:42 38.63855 -85.11911 35976 ft 412 kts 310°
2026-05-04 07:42 38.67474 -85.17558 35969 ft 411 kts 310°
2026-05-04 07:43 38.71081 -85.23194 35966 ft 411 kts 309°
2026-05-04 07:43 38.74692 -85.28849 35965 ft 411 kts 309°
2026-05-04 07:44 38.78302 -85.34511 35964 ft 410 kts 309°
2026-05-04 07:44 38.81936 -85.40207 35964 ft 410 kts 310°
2026-05-04 07:45 38.85545 -85.45858 35964 ft 410 kts 309°
2026-05-04 07:45 38.89140 -85.51528 35964 ft 410 kts 309°
2026-05-04 07:46 38.92722 -85.57199 35964 ft 409 kts 309°
2026-05-04 07:46 38.96298 -85.62873 35965 ft 410 kts 309°
2026-05-04 07:47 38.99880 -85.68561 35964 ft 410 kts 309°
2026-05-04 07:49 39.11817 -85.93542 35964 ft 410 kts 301°
2026-05-04 07:49 39.14694 -85.99867 35964 ft 410 kts 301°
2026-05-04 07:50 39.17585 -86.06233 35958 ft 410 kts 301°
2026-05-04 07:50 39.20472 -86.12554 35950 ft 410 kts 301°
2026-05-04 07:51 39.23370 -86.18879 35944 ft 410 kts 301°
2026-05-04 07:51 39.26257 -86.25209 35939 ft 410 kts 301°
2026-05-04 07:52 39.29130 -86.31532 35921 ft 410 kts 301°
2026-05-04 07:52 39.32006 -86.37880 35919 ft 410 kts 301°
2026-05-04 07:54 39.43496 -86.63395 35892 ft 412 kts 300°
2026-05-04 07:55 39.46330 -86.69723 35894 ft 412 kts 300°
2026-05-04 07:55 39.48629 -86.74868 35893 ft 413 kts 300°
2026-05-04 07:56 39.51503 -86.81310 35898 ft 414 kts 300°
2026-05-04 07:56 39.54376 -86.87761 35901 ft 413 kts 300°
2026-05-04 07:57 39.57242 -86.94211 35900 ft 414 kts 300°
2026-05-04 07:57 39.60132 -87.00729 35899 ft 415 kts 300°
2026-05-04 07:58 39.62999 -87.07209 35900 ft 415 kts 300°
2026-05-04 07:58 39.65864 -87.13698 35904 ft 415 kts 300°
2026-05-04 07:59 39.68721 -87.20182 35903 ft 415 kts 300°
2026-05-04 07:59 39.71578 -87.26680 35897 ft 415 kts 299°
2026-05-04 08:00 39.74431 -87.33183 35888 ft 415 kts 299°
2026-05-04 08:02 39.85819 -87.59274 35861 ft 415 kts 299°
2026-05-04 08:02 39.88650 -87.65794 35861 ft 415 kts 299°
2026-05-04 08:03 39.91484 -87.72334 35850 ft 415 kts 298°
2026-05-04 08:03 39.94316 -87.78885 35847 ft 415 kts 298°
2026-05-04 08:04 39.97161 -87.85480 35846 ft 415 kts 298°
2026-05-04 08:04 39.99981 -87.92032 35846 ft 415 kts 298°
2026-05-04 08:05 40.02798 -87.98589 35846 ft 415 kts 298°
2026-05-04 08:05 40.05612 -88.05155 35846 ft 415 kts 298°
2026-05-04 08:06 40.08421 -88.11720 35846 ft 415 kts 298°
2026-05-04 08:06 40.11215 -88.18269 35845 ft 415 kts 298°
2026-05-04 08:08 40.22405 -88.44562 35841 ft 414 kts 298°
2026-05-04 08:11 40.34700 -88.74513 35827 ft 415 kts 296°
2026-05-04 08:11 40.38516 -88.84741 35826 ft 415 kts 296°
2026-05-04 08:12 40.41058 -88.91559 35821 ft 416 kts 296°
2026-05-04 08:12 40.43590 -88.98358 35822 ft 416 kts 296°
2026-05-04 08:13 40.46127 -89.05182 35823 ft 416 kts 296°
2026-05-04 08:13 40.48685 -89.11994 35832 ft 417 kts 296°
2026-05-04 08:14 40.51243 -89.18810 35832 ft 417 kts 296°
2026-05-04 08:16 40.61406 -89.46187 35818 ft 416 kts 296°
2026-05-04 08:16 40.63930 -89.53040 35817 ft 416 kts 296°
2026-05-04 08:17 40.66449 -89.59895 35815 ft 417 kts 296°
2026-05-04 08:17 40.68966 -89.66762 35816 ft 417 kts 296°
2026-05-04 08:19 40.78994 -89.94290 35813 ft 417 kts 295°
2026-05-04 08:20 40.81514 -90.01248 35805 ft 419 kts 295°
2026-05-04 08:20 40.84028 -90.08206 35798 ft 421 kts 295°
2026-05-04 08:21 40.86535 -90.15166 35800 ft 420 kts 295°
2026-05-04 08:21 40.89058 -90.22183 35804 ft 419 kts 295°
2026-05-04 08:22 40.91558 -90.29154 35796 ft 422 kts 295°
2026-05-04 08:24 41.01575 -90.57218 35781 ft 423 kts 295°
2026-05-04 08:24 41.04078 -90.64310 35784 ft 423 kts 295°
2026-05-04 08:25 41.06274 -90.71515 35784 ft 423 kts 287°
2026-05-04 08:25 41.07549 -90.79200 35778 ft 425 kts 282°
2026-05-04 08:27 41.11614 -91.08851 35777 ft 426 kts 281°
2026-05-04 08:28 41.12658 -91.16565 35780 ft 425 kts 282°
2026-05-04 08:28 41.13734 -91.24268 35771 ft 428 kts 282°
2026-05-04 08:29 41.14803 -91.32037 35768 ft 428 kts 282°
2026-05-04 08:31 41.18979 -91.63133 35770 ft 428 kts 282°
2026-05-04 08:33 41.23049 -91.94237 35792 ft 427 kts 281°
2026-05-04 08:35 41.27025 -92.25317 35787 ft 426 kts 281°
2026-05-04 08:35 41.28005 -92.33079 35786 ft 427 kts 281°
2026-05-04 08:37 41.31399 -92.60334 35758 ft 427 kts 281°
2026-05-04 08:38 41.32358 -92.68125 35757 ft 428 kts 281°
2026-05-04 08:38 41.33312 -92.75927 35757 ft 427 kts 281°
2026-05-04 08:40 41.37094 -93.07327 35754 ft 429 kts 281°
2026-05-04 08:41 41.38033 -93.15232 35751 ft 429 kts 281°
2026-05-04 08:41 41.38975 -93.23184 35753 ft 429 kts 281°
2026-05-04 08:42 41.39919 -93.31020 35751 ft 429 kts 281°
2026-05-04 08:42 41.40835 -93.38870 35744 ft 429 kts 281°
2026-05-04 08:43 41.41741 -93.46770 35744 ft 429 kts 281°
2026-05-04 08:43 41.42638 -93.54661 35740 ft 429 kts 281°
2026-05-04 08:44 41.43533 -93.62536 35731 ft 430 kts 281°
2026-05-04 08:46 41.45410 -93.94261 32761 ft 429 kts 276°
2026-05-04 08:46 41.45611 -93.98234 32034 ft 429 kts 276°
2026-05-04 08:46 41.45812 -94.02191 31298 ft 429 kts 276°
2026-05-04 08:46 41.46013 -94.06148 30547 ft 429 kts 276°
2026-05-04 08:47 41.46214 -94.10124 29779 ft 429 kts 276°
2026-05-04 08:47 41.46436 -94.14119 29017 ft 428 kts 276°
2026-05-04 08:47 41.46655 -94.18073 28245 ft 428 kts 276°
2026-05-04 08:47 41.46868 -94.22024 27511 ft 427 kts 276°
2026-05-04 08:48 41.47077 -94.25948 26928 ft 423 kts 276°
2026-05-04 08:48 41.47280 -94.29817 26376 ft 417 kts 276°
2026-05-04 08:48 41.47478 -94.33661 25787 ft 414 kts 276°
2026-05-04 08:48 41.47673 -94.37463 25217 ft 410 kts 276°
2026-05-04 08:49 41.47866 -94.41282 24644 ft 406 kts 276°
2026-05-04 08:50 41.48946 -94.63208 21280 ft 386 kts 276°
2026-05-04 08:50 41.49116 -94.66761 20735 ft 383 kts 275°
2026-05-04 08:51 41.49286 -94.70300 20186 ft 381 kts 276°
2026-05-04 08:51 41.49469 -94.73806 19635 ft 378 kts 275°
2026-05-04 08:51 41.49642 -94.77279 19094 ft 376 kts 275°
2026-05-04 08:51 41.49806 -94.80705 18563 ft 373 kts 275°
2026-05-04 08:52 41.49967 -94.84171 18021 ft 370 kts 275°
2026-05-04 08:52 41.50122 -94.87582 17492 ft 367 kts 275°
2026-05-04 08:52 41.50277 -94.91001 17085 ft 361 kts 275°
2026-05-04 08:52 41.50425 -94.94336 16774 ft 362 kts 275°
2026-05-04 08:53 41.50569 -94.97629 16268 ft 360 kts 275°
2026-05-04 08:54 41.52334 -95.20181 12746 ft 341 kts 282°
2026-05-04 08:55 41.52844 -95.23265 12278 ft 339 kts 282°
2026-05-04 08:55 41.53340 -95.26286 12094 ft 329 kts 282°
2026-05-04 08:55 41.53818 -95.29216 11927 ft 317 kts 282°
2026-05-04 08:55 41.54283 -95.32086 11760 ft 307 kts 282°
2026-05-04 08:57 41.57106 -95.49684 10740 ft 251 kts 281°
2026-05-04 09:01 41.62017 -95.80248 7905 ft 242 kts 282°
2026-05-04 09:01 41.62358 -95.82434 7648 ft 241 kts 282°
2026-05-04 09:01 41.62699 -95.84624 7386 ft 240 kts 282°
2026-05-04 09:01 41.63037 -95.86801 7119 ft 240 kts 282°
2026-05-04 09:02 41.63375 -95.88976 6841 ft 239 kts 283°
2026-05-04 09:02 41.63711 -95.91138 6559 ft 238 kts 283°
2026-05-04 09:02 41.64047 -95.93295 6273 ft 237 kts 283°
2026-05-04 09:02 41.64142 -95.95481 5970 ft 240 kts 260°
2026-05-04 09:03 41.63272 -95.97403 5690 ft 254 kts 226°
2026-05-04 09:03 41.61636 -95.98530 5284 ft 269 kts 203°
2026-05-04 09:03 41.59798 -95.99071 4978 ft 272 kts 197°
2026-05-04 09:03 41.57947 -95.99522 4739 ft 268 kts 197°
2026-05-04 09:04 41.56153 -96.00019 4583 ft 260 kts 198°
2026-05-04 09:04 41.54422 -96.00534 4437 ft 252 kts 199°
2026-05-04 09:04 41.52739 -96.01044 4298 ft 244 kts 198°
2026-05-04 09:04 41.51112 -96.01543 4164 ft 236 kts 198°
2026-05-04 09:05 41.49544 -96.02029 4039 ft 228 kts 196°
2026-05-04 09:05 41.48033 -96.02509 3932 ft 218 kts 194°
2026-05-04 09:05 41.46611 -96.02923 3799 ft 205 kts 188°
2026-05-04 09:05 41.45215 -96.02931 3664 ft 191 kts 169°
2026-05-04 09:06 41.44008 -96.02275 3565 ft 180 kts 148°
2026-05-04 09:07 41.37575 -95.95965 2498 ft 162 kts 146°
2026-05-04 09:08 41.36675 -95.95104 2245 ft 158 kts 148°
2026-05-04 09:08 41.35798 -95.94270 2068 ft 150 kts 148°
2026-05-04 09:08 41.34961 -95.93476 1876 ft 144 kts 148°
2026-05-04 09:08 41.34146 -95.92702 1693 ft 144 kts 146°
2026-05-04 09:09 41.33340 -95.91937 1511 ft 144 kts 145°
2026-05-04 09:09 41.32528 -95.91164 1325 ft 145 kts 144°
2026-05-04 09:09 41.31701 -95.90375 1116 ft 145 kts 144°
2026-05-04 09:09 41.30891 -95.89597 1009 ft 136 kts 144°
2026-05-04 09:10 41.30224 -95.88973 992 ft 78 kts 143°
2026-05-04 09:10 41.30046 -95.88800 992 ft 16 kts 142°
2026-05-04 09:10 41.29966 -95.88730 992 ft 11 kts 178°
2026-05-04 09:10 41.29908 -95.88756 992 ft 7 kts 227°
2026-05-04 09:11 41.29884 -95.88792 992 ft 4 kts 227°
2026-05-04 09:11 41.29871 -95.88811 992 ft 4 kts 229°
2026-05-04 09:11 41.29845 -95.88852 992 ft 6 kts 229°
2026-05-04 09:11 41.29815 -95.88907 992 ft 11 kts 235°
2026-05-04 09:12 41.29763 -95.89006 992 ft 16 kts 235°
2026-05-04 09:12 41.29707 -95.89139 992 ft 15 kts 260°
2026-05-04 09:14 41.29710 -95.89709 992 ft 0 kts 294°